Ohio State University, OH

2:53 PM EDT on May 23, 2018 (GMT -0400)
Ohio State University

Weather History for KOSU - March, 2014

Change the Weather History Date:

Wednesday, March 12, 2014

  Actual Average Record
Temperature  
Mean Temperature 34 °F -  
Max Temperature 50 °F 44 °F 66 °F (2016)
Min Temperature 18 °F 27 °F 10 °F (1998)
Degree Days  
Heating Degree Days 30    
Moisture  
Dew Point 30 °F    
Average Humidity 87    
Maximum Humidity 96    
Minimum Humidity 60    
Precipitation  
Precipitation 0.67 in - - ()
Sea Level Pressure  
Sea Level Pressure 29.51 in    
Wind  
Wind Speed 14 mph (North)    
Max Wind Speed 31 mph    
Max Gust Speed 45 mph    
Visibility 4 miles    
Events Rain , Snow    
Averages and records for this station are not official NWS values.
T = Trace of Precipitation, MM = Missing Value Source: NWS Daily Summary

Daily Weather History Graph

Daily Weather History Graph

Search for Another Location

Airport or City:

Astronomy

Mar. 12, 2014 Rise Set
Actual Time 7:48 AM EDT 7:35 PM EDT
Civil Twilight 7:21 AM EDT 8:03 PM EDT
Nautical Twilight 6:50 AM EDT 8:34 PM EDT
Astronomical Twilight 6:18 AM EDT 9:06 PM EDT
Moon 4:05 PM EDT (3/12) 5:19 AM EDT (3/12)
Length of Visible Light 12h 41m
Length of Day
11h 47m
Waxing Gibbous, 85% of the Moon is Illuminated
Mar 12
Waxing Gibbous
Mar 16
Full
Mar 23
Last Quarter
Mar 30
New
Apr 7
First Quarter

Hourly Weather History & Observations

Time (EDT) Temp. Windchill Dew Point Humidity Pressure Visibility Wind Dir Wind Speed Gust Speed Precip Events Conditions
12:53 AM 50.0 °F - 43.0 °F 77% 29.57 in 8.0 mi NNE 8.1 mph - N/A   Partly Cloudy
1:53 AM 48.9 °F - 37.9 °F 66% 29.54 in 9.0 mi ENE 11.5 mph - N/A   Overcast
2:53 AM 46.0 °F 41.9 °F 39.9 °F 79% 29.49 in 6.0 mi East 8.1 mph - 0.00 in   Haze
3:53 AM 45.0 °F 43.5 °F 39.9 °F 82% 29.47 in 6.0 mi NNE 3.5 mph - 0.00 in   Haze
4:35 AM 44.1 °F 40.8 °F 41.0 °F 89% 29.44 in 2.0 mi NNE 5.8 mph - 0.07 in Rain Rain
4:53 AM 43.0 °F 37.7 °F 41.0 °F 93% 29.41 in 2.5 mi NE 9.2 mph - 0.11 in Rain Light Rain
5:00 AM 43.0 °F 37.7 °F 41.0 °F 93% 29.41 in 3.0 mi NNE 9.2 mph - 0.00 in Rain Light Rain
5:12 AM 43.0 °F 39.5 °F 41.0 °F 93% 29.44 in 2.0 mi North 5.8 mph - 0.04 in Rain Heavy Rain
5:25 AM 43.0 °F 36.8 °F 41.0 °F 93% 29.39 in 1.8 mi NE 11.5 mph - 0.13 in Rain Heavy Rain
5:39 AM 42.1 °F 36.6 °F 41.0 °F 96% 29.39 in 2.0 mi ENE 9.2 mph - 0.18 in Rain Rain
5:53 AM 42.1 °F 37.1 °F 41.0 °F 96% 29.37 in 2.5 mi ENE 8.1 mph - 0.20 in Rain Light Rain
6:53 AM 42.1 °F 37.1 °F 41.0 °F 96% 29.34 in 2.5 mi NE 8.1 mph - 0.17 in Rain Rain
7:01 AM 42.1 °F 38.4 °F 41.0 °F 96% 29.34 in 3.0 mi ENE 5.8 mph - 0.01 in Rain Light Rain
7:04 AM 42.1 °F 38.4 °F 41.0 °F 96% 29.34 in 2.5 mi NE 5.8 mph - 0.02 in Rain Light Rain
7:17 AM 42.1 °F 40.2 °F 41.0 °F 96% 29.34 in 2.5 mi Variable 3.5 mph - 0.02 in   Overcast
7:53 AM 42.1 °F 37.1 °F 41.0 °F 96% 29.31 in 2.5 mi NE 8.1 mph - 0.03 in   Overcast
8:00 AM 42.1 °F 36.6 °F 41.0 °F 96% 29.30 in 2.5 mi North 9.2 mph - 0.00 in Rain Light Rain
8:38 AM 41.0 °F 34.7 °F 39.9 °F 96% 29.27 in 1.5 mi NE 10.4 mph - 0.00 in   Overcast
8:53 AM 41.0 °F 33.9 °F 39.9 °F 96% 29.28 in 1.0 mi North 12.7 mph - 0.02 in Rain Rain
9:32 AM 37.0 °F 25.9 °F 36.0 °F 96% 29.31 in 2.5 mi NW 23.0 mph 29.9 mph 0.09 in Rain Rain
9:39 AM 36.0 °F 25.0 °F 34.0 °F 93% 29.33 in 3.0 mi NNW 20.7 mph 31.1 mph 0.10 in Rain Rain
9:50 AM 35.6 °F 23.0 °F 33.8 °F 93% 29.31 in 2.5 mi North 27.6 mph 36.8 mph 0.12 in Snow Light Snow
9:53 AM 34.0 °F 22.4 °F 32.0 °F 92% 29.32 in 3.0 mi NNW 20.7 mph 36.8 mph 0.12 in Rain Light Rain
10:21 AM 33.1 °F 20.3 °F 30.9 °F 92% 29.32 in 7.0 mi North 24.2 mph 32.2 mph 0.02 in Rain Light Rain
10:53 AM 34.0 °F 21.3 °F 30.9 °F 89% 29.30 in 10.0 mi North 25.3 mph 36.8 mph 0.02 in   Overcast
11:53 AM 34.0 °F 21.5 °F 30.9 °F 89% 29.29 in 10.0 mi North 24.2 mph 33.4 mph 0.00 in   Overcast
12:24 PM 34.0 °F 22.1 °F 30.9 °F 89% 29.34 in 4.0 mi North 21.9 mph 34.5 mph N/A   Overcast
12:35 PM 34.0 °F 23.0 °F 32.0 °F 92% 29.35 in 2.0 mi NNW 18.4 mph 29.9 mph N/A   Overcast
12:53 PM 33.1 °F 21.2 °F 30.9 °F 92% 29.38 in 2.0 mi NNW 20.7 mph 29.9 mph N/A   Overcast
1:21 PM 33.1 °F 23.0 °F 30.9 °F 92% 29.41 in 1.5 mi NNW 15.0 mph 28.8 mph N/A   Overcast
1:30 PM 32.0 °F 20.1 °F 30.9 °F 96% 29.41 in 0.8 mi NNW 19.6 mph 29.9 mph 0.00 in Snow Light Snow
1:47 PM 30.2 °F 16.8 °F 28.4 °F 93% 29.43 in 1.0 mi NNW 23.0 mph 35.7 mph 0.00 in Snow Light Snow
1:53 PM 30.9 °F 17.2 °F 28.9 °F 92% 29.45 in 1.8 mi NNW 25.3 mph 36.8 mph 0.00 in Snow Light Snow
1:55 PM 30.9 °F 17.5 °F 28.9 °F 92% 29.43 in 2.0 mi NNW 24.2 mph 36.8 mph 0.00 in Snow Light Snow
1:58 PM 30.9 °F 17.5 °F 28.0 °F 89% 29.43 in 3.0 mi NNW 24.2 mph 36.8 mph 0.00 in Snow Light Snow
2:13 PM 32.0 °F 19.2 °F 28.0 °F 85% 29.46 in 1.8 mi NNW 23.0 mph 34.5 mph 0.00 in Snow Light Snow
2:48 PM 32.0 °F 19.8 °F 28.4 °F 87% 29.50 in 2.0 mi NNW 20.7 mph 42.6 mph 0.00 in Snow Light Snow
2:53 PM 30.9 °F 15.9 °F 27.0 °F 85% 29.52 in 2.5 mi NNW 31.1 mph 42.6 mph 0.00 in Snow Light Snow
3:04 PM 30.9 °F 16.4 °F 26.1 °F 82% 29.52 in 5.0 mi NNW 28.8 mph 44.9 mph 0.00 in Snow Light Snow
3:24 PM 30.9 °F 16.9 °F 26.1 °F 82% 29.54 in 2.5 mi North 26.5 mph 40.3 mph 0.00 in Snow Light Snow
3:39 PM 30.9 °F 16.4 °F 25.0 °F 79% 29.57 in 5.0 mi North 28.8 mph 43.7 mph 0.00 in Snow Light Snow
3:53 PM 30.0 °F 17.2 °F 25.0 °F 82% 29.60 in 5.0 mi North 20.7 mph 42.6 mph 0.00 in Snow Light Snow
4:53 PM 28.9 °F 16.1 °F 24.1 °F 82% 29.69 in 3.0 mi NNW 19.6 mph 31.1 mph 0.00 in Snow Light Snow
5:01 PM 28.0 °F 14.6 °F 23.0 °F 81% 29.68 in 2.0 mi NNW 20.7 mph 29.9 mph 0.00 in Snow Light Snow
5:09 PM 28.0 °F 15.3 °F 23.0 °F 81% 29.69 in 1.8 mi NNW 18.4 mph 28.8 mph 0.00 in Snow Light Snow
5:21 PM 27.0 °F 13.5 °F 21.9 °F 81% 29.71 in 2.0 mi NNW 19.6 mph 39.1 mph 0.00 in Snow Light Snow
5:39 PM 27.0 °F 13.2 °F 21.0 °F 78% 29.73 in 4.0 mi NNW 20.7 mph 29.9 mph 0.00 in Snow Light Snow
5:53 PM 26.1 °F 12.0 °F 21.0 °F 81% 29.76 in 3.0 mi NNW 20.7 mph 34.5 mph 0.00 in Snow Light Snow
6:24 PM 26.1 °F 12.0 °F 19.9 °F 78% 29.77 in 2.5 mi NNW 20.7 mph 32.2 mph 0.00 in Snow Light Snow
6:53 PM 25.0 °F 10.6 °F 19.9 °F 81% 29.82 in 4.0 mi NNW 20.7 mph 27.6 mph 0.00 in Snow Light Snow
7:53 PM 23.0 °F 9.2 °F 17.1 °F 78% 29.88 in 5.0 mi NNW 17.3 mph 28.8 mph 0.00 in Snow Light Snow
8:53 PM 21.9 °F 8.7 °F 15.1 °F 75% 29.91 in 10.0 mi NNW 15.0 mph 24.2 mph 0.00 in   Overcast
9:44 PM 19.9 °F 5.7 °F 12.9 °F 74% 29.91 in 10.0 mi NNW 16.1 mph - N/A   Scattered Clouds
9:53 PM 19.9 °F 7.9 °F 12.9 °F 74% 29.95 in 10.0 mi North 11.5 mph - N/A   Partly Cloudy
10:53 PM 19.0 °F 7.5 °F 12.0 °F 74% 29.97 in 10.0 mi NNW 10.4 mph - N/A   Clear
11:53 PM 18.0 °F 4.2 °F 6.1 °F 60% 29.98 in 10.0 mi NNW 13.8 mph 21.9 mph N/A   Clear